Logan, UT

1:33 PM MDT on October 18, 2017 (GMT -0600)
Logan-Cache

Weather History for KLGU - August, 2013

Change the Weather History Date:

Wednesday, August 21, 2013

  Actual Average Record
Temperature  
Mean Temperature 77 °F -  
Max Temperature 90 °F 85 °F 96 °F (1969)
Min Temperature 64 °F 52 °F 37 °F (1980)
Cooling Degree Days 12    
Growing Degree Days 27 (Base 50)    
Moisture  
Dew Point 54 °F    
Average Humidity 50    
Maximum Humidity 75    
Minimum Humidity 23    
Precipitation  
Precipitation 0.00 in - - ()
Sea Level Pressure  
Sea Level Pressure 29.95 in    
Wind  
Wind Speed 5 mph (West)    
Max Wind Speed 16 mph    
Max Gust Speed 21 mph    
Visibility 10 miles    
Events      
Averages and records for this station are not official NWS values.
T = Trace of Precipitation, MM = Missing Value Source: NWS Daily Summary

Daily Weather History Graph

Daily Weather History Graph

Search for Another Location

Airport or City:

Trip Planner

Search our weather history database for the weather conditions in past years. The results will help you decide how hot, cold, wet, or windy it might be!

Date:

Astronomy

Aug. 21, 2013 Rise Set
Actual Time 6:42 AM MDT 8:17 PM MDT
Civil Twilight 6:12 AM MDT 8:47 PM MDT
Nautical Twilight 5:37 AM MDT 9:22 PM MDT
Astronomical Twilight 4:59 AM MDT 10:00 PM MDT
Moon 8:26 PM MDT (8/21) 7:28 AM MDT (8/21)
Length of Visible Light 14h 34m
Length of Day
13h 35m
Full, 99% of the Moon is Illuminated
Aug 21
Full
Aug 28
Last Quarter
Sep 5
New
Sep 12
First Quarter
Sep 19
Full

Hourly Weather History & Observations

Time (MDT) Temp. Heat Index Dew Point Humidity Pressure Visibility Wind Dir Wind Speed Gust Speed Precip Events Conditions
12:51 AM 75.0 °F - 50.0 °F 41% 29.90 in 10.0 mi SSW 5.8 mph - N/A   Clear
1:51 AM 70.0 °F - 53.1 °F 55% 29.92 in 10.0 mi NNW 3.5 mph - N/A   Mostly Cloudy
2:51 AM 71.1 °F - 54.0 °F 55% 29.90 in 10.0 mi Calm Calm - N/A   Overcast
3:51 AM 66.0 °F - 55.9 °F 70% 29.91 in 10.0 mi NNW 6.9 mph - N/A   Overcast
4:51 AM 68.0 °F - 55.9 °F 65% 29.92 in 10.0 mi Calm Calm - N/A   Overcast
5:51 AM 66.9 °F - 55.0 °F 66% 29.93 in 10.0 mi Calm Calm - N/A   Overcast
6:51 AM 64.0 °F - 55.9 °F 75% 29.98 in 10.0 mi North 3.5 mph - N/A   Mostly Cloudy
7:51 AM 64.9 °F - 55.9 °F 73% 30.01 in 10.0 mi SSW 4.6 mph - N/A   Clear
8:51 AM 69.1 °F - 55.0 °F 61% 30.02 in 10.0 mi Calm Calm - N/A   Clear
9:51 AM 73.0 °F - 55.9 °F 55% 30.01 in 10.0 mi SSW 8.1 mph - N/A   Clear
10:51 AM 75.0 °F - 55.0 °F 50% 29.99 in 10.0 mi Calm Calm - N/A   Clear
11:51 AM 80.1 °F 80.1 °F 55.0 °F 42% 29.97 in 10.0 mi South 5.8 mph - N/A   Clear
12:51 PM 84.0 °F - 52.0 °F 33% 29.95 in 10.0 mi NNW 3.5 mph - N/A   Clear
1:51 PM 87.1 °F - 51.1 °F 29% 29.94 in 10.0 mi SSW 8.1 mph - N/A   Clear
2:51 PM 88.0 °F - 50.0 °F 27% 29.91 in 10.0 mi SSW 8.1 mph - N/A   Clear
3:51 PM 90.0 °F - 46.9 °F 23% 29.90 in 10.0 mi South 13.8 mph 20.7 mph N/A   Clear
4:51 PM 88.0 °F - 46.0 °F 23% 29.89 in 10.0 mi SSW 10.4 mph - N/A   Clear
5:51 PM 84.0 °F 82.6 °F 54.0 °F 35% 29.90 in 10.0 mi North 12.7 mph - N/A   Partly Cloudy
6:07 PM 84.2 °F 82.8 °F 53.6 °F 35% 30.07 in 10.0 mi North 16.1 mph - N/A   Scattered Clouds
6:51 PM 82.0 °F 81.4 °F 55.0 °F 39% 29.90 in 10.0 mi NNW 11.5 mph - N/A   Partly Cloudy
7:51 PM 75.9 °F - 57.0 °F 52% 29.91 in 10.0 mi North 9.2 mph - N/A   Clear
8:51 PM 72.0 °F - 57.0 °F 59% 29.94 in 10.0 mi Calm Calm - N/A   Clear
9:51 PM 72.0 °F - 55.9 °F 57% 29.96 in 10.0 mi Calm Calm - N/A   Clear
10:51 PM 66.9 °F - 55.0 °F 66% 29.99 in 10.0 mi Calm Calm - N/A   Clear
11:51 PM 68.0 °F - 55.0 °F 63% 29.97 in 10.0 mi SW 3.5 mph - N/A   Clear